Weather History for KFFL - May, 2013

Change the Weather History Date:

Sunday, May 5, 2013

  Actual Average Record
Temperature  
Mean Temperature 57 °F -  
Max Temperature 68 °F 72 °F 87 °F (1980)
Min Temperature 46 °F 48 °F 35 °F (2004)
Degree Days  
Heating Degree Days 8    
Growing Degree Days 7 (Base 50)    
Moisture  
Dew Point 53 °F    
Average Humidity 88    
Maximum Humidity 100    
Minimum Humidity 68    
Precipitation  
Precipitation 0.01 in - - ()
Sea Level Pressure  
Sea Level Pressure 30.03 in    
Wind  
Wind Speed 7 mph (NW)    
Max Wind Speed 16 mph    
Max Gust Speed 21 mph    
Visibility 7 miles    
Events Fog    
Averages and records for this station are not official NWS values.
T = Trace of Precipitation, MM = Missing Value Source: NWS Daily Summary

Daily Weather History Graph

Daily Weather History Graph

Search for Another Location

Airport or City:

Trip Planner

Search our weather history database for the weather conditions in past years. The results will help you decide how hot, cold, wet, or windy it might be!

Date:

Astronomy

May. 05, 2013 Rise Set
Actual Time 6:00 AM CDT 8:09 PM CDT
Civil Twilight 5:30 AM CDT 8:39 PM CDT
Nautical Twilight 4:53 AM CDT 9:17 PM CDT
Astronomical Twilight 4:12 AM CDT 9:57 PM CDT
Moon 3:33 AM CDT (5/5) 4:07 PM CDT (5/5)
Length of Visible Light 15h 09m
Length of Day
14h 08m
Waning Crescent, 18% of the Moon is Illuminated
May 5
Waning Crescent
May 9
New
May 17
First Quarter
May 24
Full
May 31
Last Quarter

Hourly Weather History & Observations

Time (CDT) Temp. Windchill Dew Point Humidity Pressure Visibility Wind Dir Wind Speed Gust Speed Precip Events Conditions
12:15 AM 53.6 °F - 51.8 °F 94% 30.04 in 10.0 mi NW 4.6 mph - N/A   Overcast
12:35 AM 53.6 °F - 51.8 °F 94% 30.05 in 10.0 mi Calm Calm - N/A   Overcast
12:55 AM 53.6 °F - 51.8 °F 94% 30.05 in 10.0 mi NW 4.6 mph - N/A   Overcast
1:15 AM 53.6 °F - 51.8 °F 94% 30.05 in 10.0 mi NNW 3.5 mph - N/A   Overcast
1:35 AM 53.6 °F - 51.8 °F 94% 30.04 in - Calm Calm - N/A   Overcast
1:55 AM 51.8 °F - 51.8 °F 100% 30.04 in 5.0 mi NW 4.6 mph - N/A   Overcast
2:15 AM 51.8 °F - 50.0 °F 94% 30.04 in 5.0 mi NNW 6.9 mph - N/A   Overcast
2:35 AM 51.8 °F - 50.0 °F 94% 30.02 in 4.0 mi WNW 5.8 mph - N/A   Overcast
2:55 AM 50.0 °F - 50.0 °F 100% 30.02 in 3.0 mi NW 5.8 mph - N/A   Scattered Clouds
3:15 AM 50.0 °F - 48.2 °F 94% 30.03 in 5.0 mi NNW 6.9 mph - N/A   Scattered Clouds
3:35 AM 50.0 °F - 50.0 °F 100% 30.03 in 0.8 mi North 9.2 mph - N/A   Overcast
3:55 AM 50.0 °F - 48.2 °F 94% 30.03 in 0.2 mi NNW 6.9 mph - N/A Fog Fog
4:15 AM 48.2 °F - 48.2 °F 100% 30.03 in 0.2 mi North 5.8 mph - N/A Fog Fog
4:35 AM 48.2 °F - 48.2 °F 100% 30.03 in 0.2 mi NNW 6.9 mph - N/A Fog Fog
4:55 AM 48.2 °F - 46.4 °F 93% 30.03 in 0.2 mi NW 5.8 mph - N/A Fog Fog
5:15 AM 48.2 °F - 46.4 °F 93% 30.04 in 0.2 mi Calm Calm - N/A Fog Fog
5:35 AM 46.4 °F - 46.4 °F 100% 30.04 in 0.2 mi Calm Calm - N/A Fog Fog
5:55 AM 46.4 °F 44.3 °F 46.4 °F 100% 30.04 in 0.2 mi NW 4.6 mph - N/A Fog Fog
6:15 AM 46.4 °F 43.5 °F 46.4 °F 100% 30.05 in 0.2 mi NW 5.8 mph - N/A Fog Fog
6:35 AM 46.4 °F 43.5 °F 46.4 °F 100% 30.05 in 0.2 mi NW 5.8 mph - N/A Fog Fog
6:55 AM 46.4 °F - 46.4 °F 100% 30.06 in 0.2 mi Calm Calm - N/A Fog Fog
7:15 AM 46.4 °F 44.3 °F 46.4 °F 100% 30.06 in 0.2 mi West 4.6 mph - N/A Fog Fog
7:35 AM 48.2 °F - 46.4 °F 93% 30.06 in 0.2 mi WNW 5.8 mph - N/A Fog Fog
7:55 AM 48.2 °F - 48.2 °F 100% 30.06 in 0.2 mi NW 6.9 mph - N/A Fog Fog
8:15 AM 50.0 °F - 48.2 °F 94% 30.06 in 0.2 mi NW 6.9 mph - N/A Fog Fog
8:35 AM 50.0 °F - 50.0 °F 100% 30.06 in 0.2 mi WNW 9.2 mph - N/A Fog Fog
8:55 AM 51.8 °F - 50.0 °F 94% 30.07 in 0.2 mi NW 9.2 mph - N/A Fog Fog
9:15 AM 53.6 °F - 51.8 °F 94% 30.06 in 2.5 mi NW 9.2 mph - N/A   Overcast
9:35 AM 53.6 °F - 51.8 °F 94% 30.06 in 7.0 mi NW 10.4 mph - N/A   Mostly Cloudy
9:55 AM 53.6 °F - 51.8 °F 94% 30.06 in 7.0 mi NW 9.2 mph - N/A   Overcast
10:15 AM 55.4 °F - 51.8 °F 88% 30.06 in 10.0 mi NW 11.5 mph - N/A   Overcast
10:35 AM 55.4 °F - 51.8 °F 88% 30.07 in 7.0 mi WNW 8.1 mph - N/A   Overcast
10:55 AM 55.4 °F - 53.6 °F 94% 30.07 in 9.0 mi NW 10.4 mph - N/A   Overcast
11:15 AM 57.2 °F - 53.6 °F 88% 30.07 in 9.0 mi NW 9.2 mph - N/A   Overcast
11:35 AM 57.2 °F - 53.6 °F 88% 30.07 in 10.0 mi NW 9.2 mph - N/A   Overcast
11:55 AM 57.2 °F - 53.6 °F 88% 30.07 in 10.0 mi NW 8.1 mph - N/A   Overcast
12:15 PM 59.0 °F - 55.4 °F 88% 30.06 in 10.0 mi NW 10.4 mph - N/A   Overcast
12:35 PM 60.8 °F - 55.4 °F 82% 30.05 in 10.0 mi NW 11.5 mph - N/A   Overcast
1:15 PM 62.6 °F - 57.2 °F 82% 30.04 in 10.0 mi NNW 11.5 mph - N/A   Overcast
1:35 PM 62.6 °F - 57.2 °F 82% 30.02 in 10.0 mi NNW 15.0 mph - N/A   Mostly Cloudy
1:55 PM 62.6 °F - 57.2 °F 82% 30.02 in 10.0 mi NW 13.8 mph - N/A   Mostly Cloudy
2:15 PM 64.4 °F - 57.2 °F 77% 30.02 in 10.0 mi NNW 13.8 mph 19.6 mph N/A   Scattered Clouds
2:35 PM 64.4 °F - 57.2 °F 77% 30.01 in 10.0 mi NNW 12.7 mph - N/A   Scattered Clouds
2:55 PM 66.2 °F - 57.2 °F 73% 30.01 in 10.0 mi NNW 10.4 mph 17.3 mph N/A   Scattered Clouds
3:15 PM 66.2 °F - 57.2 °F 73% 30.00 in 10.0 mi NNW 13.8 mph 20.7 mph N/A   Mostly Cloudy
3:35 PM 66.2 °F - 59.0 °F 78% 30.00 in 10.0 mi NW 11.5 mph - N/A   Mostly Cloudy
3:55 PM 66.2 °F - 57.2 °F 73% 29.99 in 10.0 mi NW 16.1 mph - N/A   Scattered Clouds
4:15 PM 68.0 °F - 57.2 °F 68% 29.99 in 10.0 mi NNW 12.7 mph - N/A   Scattered Clouds
4:35 PM 66.2 °F - 57.2 °F 73% 29.99 in 5.0 mi North 15.0 mph - N/A   Haze
4:55 PM 64.4 °F - 59.0 °F 83% 29.99 in 10.0 mi NNW 11.5 mph - 0.01 in   Mostly Cloudy
5:15 PM 66.2 °F - 59.0 °F 78% 29.99 in 10.0 mi NW 11.5 mph - N/A   Clear
5:35 PM 64.4 °F - 57.2 °F 77% 29.99 in 10.0 mi NNW 13.8 mph - N/A   Clear
5:55 PM 64.4 °F - 57.2 °F 77% 29.99 in 10.0 mi North 6.9 mph 12.7 mph N/A   Light Drizzle
6:15 PM 64.4 °F - 57.2 °F 77% 29.99 in 10.0 mi NW 9.2 mph - N/A   Mostly Cloudy
6:35 PM 64.4 °F - 57.2 °F 77% 29.98 in 10.0 mi NW 12.7 mph - N/A   Scattered Clouds
7:15 PM 64.4 °F - 57.2 °F 77% 29.98 in 10.0 mi NW 11.5 mph - N/A   Clear
7:35 PM 64.4 °F - 57.2 °F 77% 29.99 in 10.0 mi NW 12.7 mph - N/A   Scattered Clouds
7:55 PM 62.6 °F - 57.2 °F 82% 29.99 in 10.0 mi NNW 11.5 mph - N/A   Overcast
8:15 PM 62.6 °F - 57.2 °F 82% 29.99 in 10.0 mi NW 12.7 mph - N/A   Overcast
8:35 PM 60.8 °F - 55.4 °F 82% 29.99 in 10.0 mi NNW 9.2 mph - N/A   Overcast
8:55 PM 60.8 °F - 55.4 °F 82% 30.00 in 10.0 mi NNW 9.2 mph - N/A   Mostly Cloudy
9:35 PM 59.0 °F - 55.4 °F 88% 30.01 in 10.0 mi NNW 9.2 mph - N/A   Mostly Cloudy
9:55 PM 59.0 °F - 55.4 °F 88% 30.01 in 10.0 mi NNW 9.2 mph - N/A   Scattered Clouds
10:15 PM 59.0 °F - 55.4 °F 88% 30.01 in 10.0 mi NNW 10.4 mph - N/A   Mostly Cloudy
10:35 PM 59.0 °F - 55.4 °F 88% 30.00 in 10.0 mi NNW 11.5 mph - N/A   Overcast
10:55 PM 59.0 °F - 55.4 °F 88% 30.01 in 10.0 mi NNW 10.4 mph - N/A   Overcast
11:15 PM 59.0 °F - 55.4 °F 88% 30.01 in 10.0 mi NNW 12.7 mph - N/A   Overcast
11:35 PM 59.0 °F - 55.4 °F 88% 30.02 in 10.0 mi North 9.2 mph - N/A   Overcast
11:55 PM 57.2 °F - 53.6 °F 88% 30.02 in 10.0 mi North 8.1 mph - N/A   Scattered Clouds